This demonstration page uses our WeatherBlox Daily Observations layout. Learn more.

Left ArrowRight Arrow

34.16533, -84.80231

Hourly Observations for November 6, 2020

Temp ( °F °C ) Dew Point ( °F °C ) Humidity (%) Winds ( mph kmh ) Pressure ( in mb ) Visibility ( mi km ) Precip ( " mm )
12:53 am 00:53 Clear 49 9.4 46 7.8 90 90 Calm 30.29 1026 8 13 0.00 0.00
1:53 am 01:53 Mostly Clear 48 8.9 46 7.8 93 93 Calm 30.29 1026 7 11 0.00 0.00
2:53 am 02:53 Mostly Cloudy 48 8.9 46 7.8 93 93 Calm 30.28 1025 8 13 0.00 0.00
3:53 am 03:53 Cloudy 49 9.4 47 8.3 93 93 Calm 30.27 1025 8 13 0.00 0.00
4:53 am 04:53 Partly Cloudy 49 9.4 47 8.3 93 93 Calm 30.27 1025 9 14 0.00 0.00
5:53 am 05:53 Clear 49 9.4 46 7.8 90 90 Calm 30.27 1025 8 13 0.00 0.00
6:53 am 06:53 Clear with Mist and Fog 47 8.3 45 7.2 93 93 Calm 30.29 1026 6 10 0.00 0.00
7:53 am 07:53 Sunny with Mist and Fog 48 8.9 45 7.2 89 89 Calm 30.30 1026 6 10 0.00 0.00
8:53 am 08:53 Sunny 56 13.3 49 9.4 77 77 Calm 30.32 1027 10 16 0.00 0.00
9:53 am 09:53 Sunny 61 16.1 50 10 67 67 NE 3 6 30.31 1027 8 13 0.00 0.00
10:53 am 10:53 Sunny 66 18.9 52 11.1 61 61 Calm 30.30 1026 10 16 0.00 0.00
11:53 am 11:53 Sunny 71 21.7 53 11.7 53 53 VRB 3 6 30.27 1025 10 16 0.00 0.00
12:53 pm 12:53 Sunny 74 23.3 54 12.2 50 50 Calm 30.24 1024 10 16 0.00 0.00
1:53 pm 13:53 Sunny 76 24.4 53 11.7 45 45 VRB 3 6 30.21 1023 10 16 0.00 0.00
2:53 pm 14:53 Sunny 77 25 53 11.7 43 43 ENE 7 11 30.19 1022 10 16 0.00 0.00
3:53 pm 15:53 Sunny 77 25 52 11.1 42 42 E 5 7 30.19 1022 10 16 0.00 0.00
4:53 pm 16:53 Sunny 73 22.8 53 11.7 50 50 Calm 30.19 1022 10 16 0.00 0.00
5:53 pm 17:53 Clear 64 17.8 56 13.3 75 75 Calm 30.20 1023 10 16 0.00 0.00
6:53 pm 18:53 Clear 61 16.1 55 12.8 81 81 Calm 30.21 1023 10 16 0.00 0.00
7:53 pm 19:53 Clear 57 13.9 54 12.2 90 90 Calm 30.22 1023 10 16 0.00 0.00
8:53 pm 20:53 Clear 56 13.3 53 11.7 90 90 Calm 30.23 1024 10 16 0.00 0.00
9:53 pm 21:53 Clear 55 12.8 52 11.1 90 90 Calm 30.23 1024 10 16 0.00 0.00
10:53 pm 22:53 Clear 54 12.2 51 10.6 90 90 Calm 30.23 1024 10 16 0.00 0.00
11:53 pm 23:53 Clear 54 12.2 51 10.6 90 90 Calm 30.22 1023 10 16 0.00 0.00

Powered by AerisWeather